N1KM-15 Weather Reports


Display with metric or nautical units.
time (UTC)temp
F
wind
direction
speed
MPH
gust
MPH
rain 1hr
in
rain 24hr
in
rain mn
in
humidity
%
barometer
mb
20260503013000 48 0 0.0 0.0 0.00 0.00 0.00 93 1008.8
20260503011500 49 0 0.0 1.0 0.00 0.00 0.00 93 1008.8
20260503010000 49 55 0.0 0.0 0.00 0.00 0.00 93 1008.5
20260503004500 49 89 1.0 0.0 0.00 0.00 0.00 92 1008.5
20260503003000 49 0 0.0 0.0 0.00 0.00 0.00 92 1008.5
20260503001500 49 0 0.0 1.0 0.00 0.00 0.00 92 1008.5
20260503000000 49 147 1.0 0.0 0.00 0.00 0.00 91 1008.6
20260502234500 49 0 0.0 0.0 0.00 0.00 0.00 91 1008.6
20260502233000 49 0 0.0 0.0 0.00 0.00 0.00 90 1008.6
20260502231500 49 0 0.0 2.0 0.00 0.00 0.00 90 1008.6
20260502230000 49 0 0.0 0.0 0.00 0.00 0.00 90 1008.6
20260502224500 49 0 0.0 1.0 0.00 0.00 0.00 90 1008.6
20260502223000 50 0 0.0 1.0 0.00 0.00 0.00 89 1008.7
20260502221500 50 0 0.0 1.0 0.00 0.00 0.00 88 1008.5
20260502220000 50 284 1.0 3.0 0.00 0.00 0.00 87 1008.5
20260502214500 50 0 0.0 1.0 0.00 0.00 0.00 86 1008.1
20260502213000 50 0 0.0 1.0 0.00 0.00 0.00 87 1008.2
20260502211500 50 0 0.0 2.0 0.00 0.00 0.00 87 1008.3
20260502210000 50 122 1.0 3.0 0.00 0.00 0.00 87 1008.5
20260502204500 50 201 4.0 1.0 0.00 0.00 0.00 87 1008.6
20260502203000 50 186 2.0 1.0 0.00 0.00 0.00 87 1008.6
20260502201500 50 186 1.0 4.0 0.00 0.00 0.00 86 1008.7
20260502200000 50 112 0.0 3.0 0.00 0.00 0.00 87 1008.9
20260502194500 50 0 0.0 4.0 0.00 0.00 0.00 87 1009.1
20260502193000 51 132 0.0 3.0 0.00 0.00 0.00 86 1009.2
20260502191500 52 152 2.0 2.0 0.00 0.00 0.00 85 1009.3
20260502190000 51 145 0.0 3.0 0.00 0.00 0.00 84 1009.4
20260502184500 51 139 2.0 4.0 0.00 0.00 0.00 83 1009.4
20260502183000 51 138 2.0 4.0 0.00 0.00 0.00 82 1009.7
20260502181500 52 140 4.0 2.0 0.00 0.00 0.00 79 1009.7
20260502163000 53 173 4.0 4.0 0.00 0.00 0.00 79 1009.9
20260502161500 53 197 3.0 7.0 0.00 0.00 0.00 78 1009.5
20260502151500 54 134 2.0 6.0 0.00 0.00 0.00 78 1010.9
20260502123000 51 231 2.0 2.0 0.00 0.00 0.00 81 1010.9
20260502121500 51 147 1.0 2.0 0.00 0.00 0.00 81 1010.5
20260502114500 50 213 2.0 4.0 0.00 0.00 0.00 84 1010.4
20260502113000 49 185 0.0 1.0 0.00 0.00 0.00 82 1010.3
20260502111500 49 183 1.0 1.0 0.00 0.00 0.00 81 1010.1
20260502110000 49 10 0.0 2.0 0.00 0.00 0.00 82 1010.3
20260502104500 48 202 0.0 0.0 0.00 0.00 0.00 83 1010.4
20260502103000 48 202 2.0 3.0 0.00 0.00 0.00 83 1010.0
20260502101500 48 0 0.0 0.0 0.00 0.00 0.00 82 1010.0
20260502091500 47 0 0.0 0.0 0.00 0.00 0.00 78 1009.9
20260502071500 47 0 0.0 0.0 0.00 0.00 0.00 79 1010.2
20260502070000 48 0 0.0 0.0 0.00 0.00 0.00 77 1010.0
20260502064500 48 0 0.0 1.0 0.00 0.00 0.00 75 1010.0
20260502063000 48 140 0.0 2.0 0.00 0.00 0.00 76 1010.2
20260502061500 48 0 0.0 0.0 0.00 0.00 0.00 78 1010.1
20260502060000 48 0 0.0 0.0 0.00 0.00 0.00 78 1010.2
20260502054500 49 0 0.0 1.0 0.00 0.00 0.00 77 1010.2
20260502053000 48 0 0.0 0.0 0.00 0.00 0.00 76 1010.4
20260502051500 48 343 0.0 0.0 0.00 0.00 0.00 74 1010.5
20260502050000 47 0 0.0 1.0 0.00 0.00 0.00 75 1010.5
20260502044500 48 0 0.0 1.0 0.00 0.00 0.00 75 1010.6
20260502043000 48 358 0.0 1.0 0.00 0.00 0.00 75 1010.5
20260502041500 48 0 0.0 0.0 0.00 0.00 0.00 75 1010.7
20260502040000 48 302 0.0 1.0 0.00 0.00 0.00 75 1010.6
20260502034500 48 0 0.0 1.0 0.00 0.00 0.00 76 1010.7
20260502033000 49 0 0.0 0.0 0.00 0.00 0.00 75 1010.8
20260502031500 49 262 1.0 2.0 0.00 0.00 0.00 73 1010.5
20260502030000 50 263 2.0 2.0 0.00 0.00 0.00 70 1010.6
20260502024500 51 248 0.0 3.0 0.00 0.00 0.00 69 1010.3
20260502023000 50 272 2.0 3.0 0.00 0.00 0.00 70 1010.3
20260502021500 51 235 0.0 2.0 0.00 0.00 0.00 71 1010.4
20260502020000 51 131 1.0 2.0 0.00 0.00 0.00 70 1010.4
20260502014500 51 0 0.0 0.0 0.00 0.00 0.00 68 1010.3